Content
SEND FEEDBACK

Daily
Averages
Monthly
Summary
United States of America

LIVONIA, MICHIGAN


Home > North America > United States > Michigan
Elevation: 778 feet     Latitude: 42 13N     Longitude: 083 31W

WEATHER
 
SELECT A DAY
Number of Records: 202,607;   Date Range: 1/1/95 - 7/29/14
 
SHARE

PRINT THIS DATA

[ ← Previous Day ]
WEATHER ALMANAC - JULY 1, 2013
[ Next Day → ]
[ °C ]   °F
We're sorry. There is no daily almanac available for Livonia, Michigan on July 1, 2013.
WEATHER BY HOUR - JULY 1, 2013
[ °C ]   °F
Local TimeTemperatureDewpointHumidityBarometerVisibilityWind DirectionWind SpeedGust SpeedPrecipitationEventsConditions
1:53 AM64.0 °F46.9 °F54 %29.94 in10.0 miNNE (30°)6.9 mphScattered Clouds
2:53 AM64.0 °F48.9 °F58 %29.93 in10.0 miNNE (20°)6.9 mphClear
3:53 AM64.0 °F50.0 °F60 %29.93 in10.0 miNNE (20°)9.2 mphPartly Cloudy
4:53 AM64.0 °F51.1 °F63 %29.94 in10.0 miNNE (20°)9.2 mphClear
5:53 AM64.0 °F52.0 °F65 %29.95 in10.0 miNNE (20°)11.5 mphClear
6:53 AM64.9 °F51.1 °F61 %29.95 in10.0 miNNE (20°)10.4 mphClear
7:53 AM66.0 °F51.1 °F59 %29.96 in10.0 miNNE (30°)10.4 mphMostly Cloudy
8:53 AM66.9 °F51.1 °F57 %29.97 in10.0 miNorth (10°)8.1 mphScattered Clouds
9:53 AM69.1 °F52.0 °F54 %29.98 in10.0 miNNE (30°)11.5 mphMostly Cloudy
10:53 AM70.0 °F54.0 °F57 %29.98 in10.0 miNE (40°)11.5 mphScattered Clouds
11:53 AM70.0 °F55.9 °F61 %29.99 in10.0 miNorth (10°)6.9 mph0.00 inRainLight Rain
12:53 PM68.0 °F59.0 °F73 %30.01 in10.0 miNNE (20°)8.1 mph0.01 inRainLight Rain
1:53 PM66.9 °F59.0 °F76 %30.03 in10.0 miNNE (20°)9.2 mph0.06 inRainLight Rain
2:53 PM66.0 °F57.9 °F75 %30.04 in10.0 miNNE (30°)5.8 mph0.03 inRainRain
3:53 PM66.0 °F57.9 °F75 %30.04 in10.0 miNNE (20°)5.8 mph0.04 inRainLight Rain
4:53 PM66.0 °F57.9 °F75 %30.02 in10.0 miNNE (30°)9.2 mph0.04 inRainLight Rain
5:53 PM64.9 °F57.9 °F78 %30.03 in10.0 miNNE (30°)9.2 mph0.05 inRainLight Rain
6:53 PM66.0 °F57.9 °F75 %30.03 in10.0 miNE (40°)8.1 mph0.03 inRainLight Rain
7:53 PM66.0 °F59.0 °F78 %30.05 in10.0 miENE (60°)10.4 mph0.02 inRainLight Rain
8:53 PM64.0 °F57.0 °F78 %30.05 in10.0 miNE (40°)12.7 mph0.02 inRainLight Rain
9:53 PM64.0 °F57.0 °F78 %30.04 in10.0 miNorth (10°)13.8 mph0.09 inRainLight Rain
10:53 PM64.0 °F57.0 °F78 %30.04 in10.0 miNNE (20°)12.7 mph0.00 inOvercast
11:53 PM64.0 °F55.9 °F75 %30.04 in10.0 miNNE (30°)10.4 mphOvercast
Hourly data recorded from KYIP, located miles away from Livonia, Michigan







STORIES FROM OUR PARTNERS